Location: Avully
(45.9633°N, 6.0228°E)
Time: 03:20:23
(UTC+00:00)

Cosmos 1833 Rocket - Pass Details

Date: 23 May 2024
Orbit: 831 x 839 km, 71.0° (Epoch: 17 June)

Event Time Altitude Azimuth Distance (km) Brightness Sun altitude
Exits shadow 00:08:17 28° 251° (WSW) 1,512 3.7 -22.9°
Maximum altitude 00:10:44 44° 304° (NW) 1,144 3.5 -22.8°
Drops below altitude 10° 00:16:06 10° 16° (NNE) 2,453 6.2 -22.7°
Sets 00:18:40 0° 23° (NNE) 3,391 7.2 -22.6°
